Location: Bretagne
(43.8474°N, 0.4650°W)
Time: 15:30:53
(UTC+00:00)

CZ-2D R/B - Visible Passes

Search period start: 11 April 2026 00:00
Search period end: 21 April 2026 00:00
Orbit: 524 x 594 km, 98.0° (Epoch: 11 April)

Date Brightness Start Highest point End Pass type
(mag) Time Alt. Az. Time Alt. Az. Time Alt. Az.
11 Apr 6.5 20:00:20 10° WSW 20:02:17 13° W 20:04:14 10° WNW visible
12 Apr 6.4 19:58:42 10° WSW 20:00:47 14° W 20:02:51 10° WNW visible
13 Apr 6.4 19:57:05 10° SW 19:59:16 14° W 20:01:27 10° WNW visible
14 Apr 6.4 19:55:28 10° SW 19:57:45 15° W 20:00:02 10° WNW visible
15 Apr 6.3 19:53:51 10° SW 19:56:14 15° W 19:58:37 10° NW visible
16 Apr 6.3 19:52:13 10° SW 19:54:43 16° W 19:57:11 10° NW visible
17 Apr 6.3 19:50:36 10° SW 19:53:10 16° W 19:55:44 10° NW visible
18 Apr 6.2 19:48:58 10° SW 19:51:38 17° W 19:54:16 10° NW visible
19 Apr 6.2 19:47:21 10° SW 19:50:05 18° W 19:52:48 10° NW visible
20 Apr 6.2 19:45:43 10° SW 19:48:32 18° W 19:51:19 10° NW visible
